Tracking 27107 objects as of 21-Mar-2023
HD Live streaming from Space Station
objects crossing your sky now

SL-8 DEB

Track SL-8 DEB now!
10-day predictions


NORAD ID: 27746
Int'l Code: 1991-009DB
Perigee: 1,482.9 km
Apogee: 1,766.0 km
Inclination: 74.1 °
Period: 118.6 minutes
Semi major axis: 7995 km
RCS: 0.0277 m2 (small)
Launch date: February 12, 1991
Source: Commonwealth of Independent States (former USSR) (CIS)
Launch site: PLESETSK MISSILE AND SPACE COMPLEX (PKMTR)

Note: This is SATELLITE DEBRIS
Your satellite tracking list
Your tracking list is empty




NASA's NSSDC Master Catalog

Two Line Element Set (TLE):
1 27746U 91009DB  23078.80088105  .00000294  00000-0  30552-2 0  9997
2 27746  74.0989 102.2144 0177054 296.8800 239.6044 12.14337480429844
Source of the keplerian elements: AFSPC